Wind_Speed
15 15 15 16 16 17 17 17 19 20 22 23 24 24 25 24 21 20 20 21 23 25 23 21 22 21 22 22 21 23 24 24 23 21 24 24 22 21 19 18 18 17 18 18 18 17 16 17 17 16 15 16 16 15 14 14 13 12 11 9 8 6 5 5 5 5 5 5 5 4 4 4 4 3 2 2 2 2 2 2 4 5 4 5 5
16 16 17 18 17 17 17 18 19 21 23 25 25 25 25 24 21 21 22 22 23 26 24 21 21 20 20 21 22 25 27 26 25 23 24 25 22 20 19 18 17 16 17 18 18 18 18 19 18 16 17 17 16 15 14 14 13 12 11 9 8 7 6 6 6 5 5 5 5 5 4 4 4 4 3 3 3 3 2 3 5 5 5 6 6
19 17 18 20 20 19 19 19 20 21 24 26 26 26 26 25 23 23 23 23 24 25 24 22 21 21 20 20 20 24 28 27 25 24 24 24 22 20 19 17 16 15 16 16 17 18 20 20 18 17 18 17 17 15 14 13 13 12 11 10 9 7 7 7 6 5 5 5 5 6 5 5 5 5 4 4 4 3 3 3 4 5 5 5 5
22 20 19 20 20 21 22 20 20 22 24 26 26 27 27 27 25 24 23 23 24 24 24 22 21 21 19 18 19 23 27 27 24 23 23 23 22 21 20 18 17 17 17 17 17 18 19 20 18 18 19 18 17 15 13 13 13 12 12 11 10 8 7 7 6 6 6 6 6 7 6 6 6 6 5 5 5 4 4 4 3 4 4 4 4
23 23 22 22 21 20 22 22 21 23 25 25 25 26 27 26 25 23 22 21 23 25 25 24 22 20 17 16 18 19 23 24 22 21 23 24 22 21 20 19 19 18 17 18 17 17 18 19 18 19 19 18 17 15 14 14 14 13 13 12 10 9 8 8 7 7 7 7 7 8 8 7 7 6 5 6 6 5 5 4 4 4 4 4 4
23 23 23 23 21 18 19 21 21 22 23 24 24 25 26 25 24 23 22 21 22 25 27 26 23 20 18 15 15 16 19 20 20 20 23 24 23 22 20 19 19 18 18 18 17 17 19 20 20 20 20 19 17 16 15 15 15 14 12 11 11 10 10 9 8 8 8 8 9 8 8 8 7 6 6 6 6 6 6 5 5 5 5 4 4
23 22 21 21 21 19 17 16 16 18 19 21 23 25 26 26 25 24 23 21 22 25 28 27 24 21 19 17 14 17 21 21 19 20 22 22 22 21 19 18 18 18 19 19 18 19 20 21 21 20 20 19 17 17 16 16 15 14 13 12 12 11 11 10 10 9 9 10 10 9 8 8 7 7 7 7 7 7 6 6 6 6 6 5 5
21 20 20 20 23 22 19 16 15 16 17 18 20 23 26 26 26 25 23 21 22 26 29 28 24 21 20 19 15 14 18 20 19 19 21 21 21 21 18 18 18 19 19 19 19 20 21 21 20 20 20 19 19 18 17 16 16 15 14 13 12 12 12 11 11 10 10 11 10 8 8 7 7 7 8 8 7 7 7 7 7 7 7 7 7
19 19 20 22 24 23 19 17 17 17 18 18 19 21 25 26 25 24 23 22 24 27 28 26 22 20 21 20 15 12 14 16 16 17 20 21 21 20 18 18 19 19 19 20 20 20 20 19 19 20 20 19 19 19 18 18 17 16 15 14 14 13 13 12 12 11 11 11 10 9 8 8 8 8 8 8 8 8 8 8 8 8 8 8 9
21 22 23 25 25 24 21 19 18 18 19 20 19 20 23 25 26 25 23 22 25 27 27 24 21 19 20 20 18 15 15 14 13 14 17 20 20 18 17 19 19 20 20 20 21 20 19 18 19 20 20 20 20 19 19 18 17 17 16 15 14 14 15 14 13 12 12 11 10 10 9 9 9 9 9 9 9 9 9 9 9 10 10 10 10
24 26 27 28 29 28 25 24 22 20 22 23 22 22 23 25 27 26 22 20 23 26 26 25 23 20 19 20 19 17 16 15 13 12 14 17 19 17 17 18 19 20 21 21 21 20 19 19 20 20 20 20 20 20 20 19 18 17 16 15 15 15 16 15 14 13 12 12 11 11 10 9 10 10 10 11 10 10 10 10 10 11 11 10 11
25 26 29 31 33 33 30 28 26 26 29 29 27 26 26 26 27 26 22 21 24 27 27 26 26 23 20 20 20 19 17 15 14 13 13 14 16 16 15 17 18 19 21 22 22 21 21 20 20 20 19 20 20 20 20 18 17 17 16 16 16 16 16 15 15 14 12 12 12 11 10 10 10 11 11 12 12 12 11 11 11 12 11 11 12
28 28 31 33 36 36 33 32 32 33 35 35 32 29 26 24 25 26 24 24 26 29 27 25 25 24 21 20 22 20 18 16 16 15 14 13 13 14 15 16 18 19 20 22 23 22 22 21 20 20 20 20 20 20 20 19 18 17 17 18 17 17 15 15 14 14 13 13 12 11 11 11 12 13 13 13 13 13 13 12 12 13 13 12 13
33 33 35 37 39 38 35 35 35 36 38 39 35 31 27 26 26 26 26 26 27 29 29 26 25 25 22 21 23 21 16 15 18 18 16 14 13 13 15 17 18 19 21 22 23 22 21 21 21 21 21 21 21 21 20 19 19 19 19 18 17 16 15 15 15 14 14 13 12 12 12 12 13 14 14 14 14 14 13 13 13 14 14 13 14
34 35 37 39 40 40 39 37 38 40 41 39 33 28 29 29 27 26 29 30 30 32 32 30 28 26 23 22 24 23 17 13 17 19 18 16 14 15 17 18 19 20 20 22 23 22 21 21 22 22 22 22 22 22 21 20 21 20 20 19 18 17 16 16 15 15 15 14 13 13 13 13 14 14 14 14 15 14 14 13 14 14 14 14 14
31 32 33 35 36 39 39 38 39 40 38 34 30 28 29 30 28 29 32 33 33 33 34 33 31 28 24 22 24 25 21 13 13 16 19 18 16 18 20 21 21 20 20 22 22 22 22 22 22 23 23 23 23 22 22 22 22 21 20 20 18 17 16 16 16 15 15 15 14 14 14 14 14 13 13 14 14 14 14 13 13 14 14 13 14
29 29 29 30 32 34 35 36 36 36 35 31 28 27 28 28 28 30 33 33 31 30 30 31 30 26 23 22 22 24 22 15 11 13 17 19 19 19 22 23 22 21 22 23 23 23 22 22 22 23 23 23 23 23 23 23 23 22 21 20 19 18 17 16 16 16 16 16 16 16 15 15 14 13 13 13 14 13 13 13 13 14 14 14 15
27 27 28 28 29 30 31 33 33 34 33 29 26 25 25 26 26 27 31 33 30 27 28 28 23 17 17 20 21 22 22 17 12 11 15 19 20 20 21 22 22 23 23 24 23 22 22 22 23 23 23 24 24 24 25 25 24 23 21 20 20 19 17 16 17 17 17 17 17 17 15 14 15 14 12 12 13 13 13 13 13 14 15 15 16
27 29 29 28 28 27 26 27 29 31 30 27 25 23 22 23 23 21 23 26 26 26 26 25 21 16 15 17 20 22 22 20 16 11 11 17 20 21 23 22 22 24 26 25 23 22 23 23 24 24 25 25 26 26 26 26 25 23 22 20 20 19 17 16 17 18 18 18 18 17 15 14 15 15 13 13 13 13 13 13 14 15 16 16 16
28 29 29 28 25 22 18 17 18 21 24 24 23 19 18 18 17 15 16 18 20 23 23 21 22 21 19 19 19 22 23 21 18 11 9 15 21 23 25 25 23 25 28 27 24 23 24 24 24 25 25 26 27 27 27 26 25 23 22 21 20 19 17 17 18 18 19 19 18 17 16 14 15 16 15 14 14 13 13 14 15 16 16 16 16
24 25 25 24 21 17 14 13 13 14 16 18 18 15 12 13 12 11 11 12 13 17 20 22 25 22 20 21 19 20 23 23 21 16 13 18 23 23 24 25 25 26 28 26 24 24 23 24 24 25 26 27 27 27 26 25 24 23 22 21 21 19 18 18 18 19 19 19 19 18 17 16 16 16 16 15 15 14 14 15 16 16 16 16 16
19 19 18 19 18 17 15 14 12 12 12 12 12 12 12 12 10 9 8 9 9 13 18 23 24 19 18 21 20 19 22 23 24 22 20 20 23 23 23 25 26 28 27 25 23 23 23 24 25 26 26 27 27 26 25 24 23 22 21 21 21 20 19 19 19 19 19 20 20 19 18 17 16 16 16 15 15 14 14 15 16 16 16 16 17
15 15 15 16 16 17 18 17 15 13 12 12 12 13 12 10 9 8 7 7 6 10 16 20 21 18 15 18 19 18 20 21 23 24 21 19 21 23 24 26 27 27 24 23 22 22 23 24 25 26 27 26 26 24 23 23 22 22 21 21 21 20 20 19 19 19 20 21 21 20 19 18 17 17 16 15 15 14 14 15 16 16 16 17 18
15 15 16 16 16 17 18 19 18 16 15 15 16 16 15 13 13 12 10 8 6 8 13 15 17 16 14 15 17 17 18 20 22 24 21 20 22 25 26 27 29 27 21 20 22 22 22 24 25 26 27 26 24 23 22 22 22 22 21 21 22 21 20 19 20 21 22 23 22 21 20 19 19 18 17 16 15 15 15 16 17 17 17 18 19
18 17 17 17 17 17 18 19 19 17 16 16 16 17 16 16 17 16 14 12 11 11 13 12 12 14 14 16 18 18 19 20 22 23 21 21 23 26 28 30 33 32 25 22 23 23 23 24 25 26 26 24 23 22 23 23 22 22 22 22 22 21 20 20 21 22 23 23 23 22 21 21 20 19 18 18 17 16 16 16 17 17 18 19 20
19 19 19 18 18 18 19 20 21 19 17 16 15 16 15 15 15 15 16 16 16 17 17 15 14 14 16 18 19 19 18 19 22 23 23 23 24 26 30 32 34 34 31 27 26 26 25 25 26 25 24 23 22 22 23 23 22 22 22 22 22 21 20 21 22 23 24 24 24 23 23 22 21 21 20 20 19 18 18 17 17 18 19 20 20
19 19 19 19 20 19 19 20 21 21 20 19 18 17 16 15 14 14 16 18 19 20 19 18 17 17 18 20 20 19 17 19 22 23 25 26 25 27 32 33 32 32 32 30 28 27 26 25 25 24 23 23 22 22 22 22 22 22 21 21 22 21 21 22 23 24 25 25 25 24 24 23 22 22 22 21 20 20 19 19 19 20 21 20 20
19 20 20 19 20 20 19 19 20 21 22 22 21 21 19 18 17 16 17 19 22 23 21 20 20 20 21 22 21 20 19 20 22 23 26 27 26 27 30 32 33 32 30 28 26 26 27 25 24 23 23 24 23 22 21 21 21 21 21 21 21 21 22 23 24 25 26 26 25 24 24 24 23 23 23 22 22 21 21 21 20 21 21 21 21
20 20 20 19 19 19 19 18 18 20 21 22 23 23 22 21 20 20 20 21 23 24 23 22 22 22 23 23 22 22 21 22 23 24 25 26 27 28 28 29 31 30 29 29 28 27 27 27 24 24 25 27 26 23 22 21 22 22 22 21 21 21 23 23 24 26 27 26 25 25 25 25 24 24 24 23 23 22 22 22 22 22 22 22 22
20 19 19 19 18 18 18 18 18 18 19 20 21 22 22 22 22 22 22 22 23 24 24 25 24 24 24 23 23 23 23 23 24 25 25 26 28 30 30 29 29 29 30 31 29 28 28 28 26 26 28 30 28 25 23 23 23 23 22 22 22 22 23 24 25 26 27 26 26 25 25 24 24 24 23 23 23 23 24 24 24 24 24 24 24
20 20 20 19 19 19 19 19 19 18 18 18 19 21 21 21 22 22 23 23 23 23 23 25 26 26 25 24 23 24 24 25 25 26 27 27 29 32 33 31 28 27 27 27 27 29 29 28 28 29 31 31 29 27 25 24 24 24 24 23 23 24 24 25 26 27 27 27 26 25 24 22 22 22 22 22 22 24 26 27 26 27 26 26 26
21 21 21 21 20 20 21 21 21 20 19 18 18 19 19 20 21 22 23 23 23 23 23 24 26 27 25 24 24 24 26 26 26 27 28 27 28 32 36 35 29 25 24 24 25 27 27 28 31 33 33 32 30 28 25 24 25 25 25 25 24 24 24 24 25 26 26 25 25 23 22 22 21 21 21 22 22 22 24 26 26 28 28 28 27
24 24 24 24 23 22 22 22 22 22 21 20 19 19 19 19 20 21 22 23 22 23 22 22 25 26 25 24 24 23 24 25 26 28 28 27 28 32 37 38 32 24 23 24 25 26 27 30 33 35 34 32 30 28 25 25 26 26 26 26 25 23 23 23 24 25 25 24 24 24 23 22 21 22 22 23 24 25 26 27 27 27 28 28 28
26 26 26 26 26 25 24 24 24 24 23 22 21 20 20 20 20 21 22 22 22 21 21 21 23 24 24 24 23 22 22 23 24 27 29 29 31 33 36 39 35 26 23 25 25 27 30 32 34 35 34 33 31 29 27 26 27 27 27 27 25 23 22 23 24 25 26 25 25 25 24 23 23 24 24 24 26 27 29 30 30 29 28 28 27
27 28 28 28 27 27 27 26 25 25 24 23 22 22 21 21 21 21 22 22 22 22 21 21 21 22 22 22 21 20 20 21 24 28 30 30 33 34 36 40 37 28 25 25 25 26 29 31 33 34 34 35 34 31 29 28 28 28 29 28 26 24 24 24 25 26 27 28 28 27 26 26 26 26 26 27 28 29 29 31 31 31 30 29 28
29 29 30 30 29 28 28 27 26 26 25 24 23 23 23 23 23 22 22 22 22 22 22 22 22 21 20 20 20 20 20 21 25 30 30 30 33 34 37 41 36 27 26 26 25 26 28 28 30 32 34 37 35 32 31 30 29 29 29 29 28 26 26 27 27 27 28 30 31 30 28 28 28 28 29 30 31 31 31 31 32 31 31 30 30
29 30 31 31 30 30 30 29 28 27 26 26 24 24 24 25 24 23 23 22 22 22 22 22 22 20 19 20 21 21 20 21 23 26 27 29 31 33 37 40 34 27 26 27 27 28 30 30 30 32 35 36 34 32 31 31 30 29 29 29 29 28 28 28 28 28 28 29 30 31 31 30 31 31 32 33 34 34 34 33 32 31 30 29 29
31 31 31 31 32 32 31 30 29 28 28 27 26 25 25 26 26 24 23 23 23 23 22 21 20 20 20 20 21 22 22 22 22 23 25 27 30 32 37 37 31 26 27 29 30 31 32 31 31 31 33 33 32 31 32 31 30 29 29 29 28 28 29 29 29 29 29 29 29 31 32 33 34 35 34 34 35 36 35 33 32 31 30 29 29
31 32 32 32 33 33 32 31 30 29 29 28 28 27 26 27 27 26 24 24 24 24 23 21 20 20 20 19 21 25 25 24 24 24 24 26 30 34 38 36 30 27 29 32 34 34 33 31 31 30 31 32 32 32 32 31 30 29 29 29 29 28 29 29 29 29 30 30 31 32 33 34 35 35 33 33 34 35 34 33 32 32 31 31 30
32 32 32 33 34 34 34 33 31 30 30 30 30 29 28 28 28 27 25 24 25 25 25 23 22 21 20 18 17 20 22 23 25 25 25 27 30 34 37 35 32 31 32 34 35 36 34 30 29 29 31 31 31 31 31 31 31 31 31 31 31 31 31 30 31 31 31 31 32 33 32 32 33 32 31 32 33 34 33 33 32 32 32 32 33
34 34 34 34 35 35 35 34 33 31 31 32 32 31 29 29 29 28 26 25 25 25 25 24 23 22 21 17 12 12 16 21 26 28 29 31 33 36 37 36 35 33 32 33 35 35 34 31 29 28 29 30 30 30 30 30 30 31 33 34 34 34 33 33 33 32 31 31 32 31 30 30 30 31 31 32 33 33 34 34 34 34 34 35 36
37 37 37 36 36 36 35 35 35 34 33 33 33 33 31 30 30 29 27 25 25 25 24 23 22 22 21 17 13 13 18 24 27 30 32 33 35 37 38 37 36 34 33 34 37 37 37 34 30 28 29 29 30 30 30 30 30 32 34 35 35 35 35 35 34 32 31 30 30 30 30 30 30 31 31 32 33 34 35 35 36 37 37 38 38
37 38 38 38 37 37 36 36 36 36 35 33 32 33 33 31 31 31 30 27 26 26 25 23 22 22 21 19 16 15 19 23 26 29 31 32 34 37 38 37 36 35 34 35 37 41 42 37 31 29 29 29 30 31 31 32 34 35 36 36 37 37 37 35 33 31 30 29 30 30 30 30 31 31 32 34 35 36 37 37 38 38 39 39 40
33 35 36 36 36 36 37 36 35 35 34 32 32 34 33 32 31 32 32 31 28 27 26 25 23 22 21 20 19 19 20 21 21 23 25 27 30 34 37 36 34 34 35 34 34 38 41 39 35 33 33 33 33 33 34 36 37 37 37 38 38 37 35 33 30 29 30 30 31 31 31 31 32 33 35 36 37 38 39 40 41 42 42 42 42
30 31 33 34 34 35 35 36 34 34 34 34 34 34 34 33 33 32 32 33 31 29 27 26 25 24 23 22 21 21 22 22 21 21 21 19 19 24 29 33 35 35 35 35 33 34 37 39 38 38 38 38 37 37 37 37 37 36 36 36 35 33 31 31 30 31 31 32 33 33 34 34 36 37 38 39 40 41 42 43 43 44 44 44 44
30 30 31 32 32 32 33 34 33 33 35 36 36 35 34 34 33 33 33 34 33 31 29 27 26 25 24 24 23 22 22 23 24 24 21 17 15 16 20 26 32 35 37 38 37 35 35 36 37 37 38 38 37 36 35 34 33 33 32 31 30 29 28 29 30 30 31 31 32 34 35 37 39 40 40 41 42 42 43 43 44 44 45 45 46
30 31 31 31 31 32 32 33 33 34 34 35 36 36 35 34 33 33 33 34 34 33 30 27 27 26 25 25 25 24 24 24 25 26 25 21 19 19 18 18 22 27 31 36 38 36 33 31 29 31 34 35 34 33 32 30 29 29 29 28 28 28 29 30 32 32 32 33 35 37 39 42 43 43 43 43 43 44 44 44 45 45 46 46 47
32 32 32 32 33 33 34 34 35 35 35 35 35 35 36 35 33 32 32 33 33 32 30 28 27 26 25 25 25 25 25 25 25 26 26 23 21 20 19 19 21 23 26 29 31 31 29 27 25 25 29 31 31 31 32 32 31 29 29 29 30 31 31 32 34 35 37 39 41 43 44 45 46 45 45 45 45 45 45 45 46 46 46 46 46
33 34 35 35 35 35 36 36 36 36 36 35 35 35 36 36 34 32 31 32 32 32 31 29 28 27 26 25 25 25 24 24 24 24 24 23 22 21 21 23 26 25 24 25 26 25 25 24 24 25 27 28 29 30 31 32 32 31 31 32 33 35 36 37 38 39 41 43 44 44 45 45 46 45 45 45 45 45 45 45 45 45 45 45 45
35 35 36 36 37 37 38 38 38 38 37 36 35 35 35 35 35 34 32 31 30 30 30 27 26 27 28 28 28 27 26 25 25 25 25 25 26 25 26 27 28 27 27 28 29 30 30 29 29 29 29 31 32 33 34 34 35 36 37 38 39 40 41 42 43 43 43 43 43 43 44 44 45 45 45 45 45 45 44 44 44 44 44 45 46
39 39 39 38 39 39 39 39 39 39 39 38 37 36 35 35 35 35 34 32 30 30 29 27 27 29 32 33 33 32 30 28 28 28 28 28 29 29 30 31 32 33 34 36 37 37 35 34 34 34 33 33 34 35 37 38 40 40 40 41 42 43 44 44 43 42 42 42 42 43 43 44 44 44 44 44 43 43 43 43 44 45 46 48 49
Wind_Direction
277 283 282 279 280 276 269 263 261 263 265 268 268 270 273 278 288 293 290 289 286 287 292 290 284 281 277 276 264 250 250 254 251 232 211 206 208 211 215 216 218 221 220 219 219 222 225 227 229 227 223 221 220 215 212 220 230 231 229 221 214 217 212 209 223 230 235 243 252 261 266 266 267 260 230 221 225 193 129 117 125 128 140 152 152
277 285 287 284 281 276 270 265 260 259 261 263 265 268 272 278 286 288 283 279 278 282 288 288 284 282 278 276 265 246 244 247 241 227 211 204 204 208 211 212 215 218 213 211 216 220 223 225 225 223 223 222 217 213 211 216 224 227 227 225 220 218 213 218 230 232 237 251 257 256 257 256 250 241 227 214 208 191 150 133 137 136 138 139 133
280 280 284 286 284 279 272 263 257 257 259 261 264 268 271 276 282 283 280 277 277 278 280 281 281 284 279 277 268 243 238 241 232 220 211 202 199 203 206 208 211 211 209 211 218 222 224 223 221 220 222 220 215 212 212 215 220 221 222 226 228 222 218 227 236 236 240 248 253 251 247 240 234 229 221 212 206 188 169 167 162 151 147 140 132
283 279 282 286 286 284 277 267 261 259 260 262 265 268 271 275 277 278 280 280 277 275 277 277 277 283 280 278 273 244 233 237 228 215 211 202 197 201 204 207 207 209 214 216 221 227 227 224 221 220 218 216 215 213 213 215 217 217 216 220 226 227 228 235 239 239 240 243 245 244 241 236 235 230 212 199 197 191 185 191 192 181 168 153 148
279 280 286 291 295 294 285 276 268 264 264 267 270 272 272 273 274 274 276 277 275 274 275 273 274 280 278 275 269 240 224 230 227 217 213 204 199 201 203 207 208 209 214 216 222 228 227 222 219 219 217 214 214 213 213 214 215 216 214 213 217 222 230 237 240 239 240 243 244 240 238 237 233 224 210 199 198 203 208 203 198 198 191 171 168
283 287 292 299 306 307 293 281 276 274 273 274 275 274 272 270 270 269 269 270 269 269 270 270 270 274 274 271 260 239 230 231 226 219 215 208 204 204 205 208 208 208 212 216 221 223 220 216 214 216 216 213 213 214 214 213 214 216 215 213 214 218 226 232 236 239 240 243 244 239 236 236 232 223 218 216 213 213 214 206 196 201 204 190 187
289 294 298 303 306 305 296 284 281 282 280 276 273 270 269 268 267 266 266 265 263 263 264 265 264 266 268 265 252 247 243 235 230 226 220 213 209 209 210 210 209 209 212 215 217 216 213 211 211 214 213 212 213 214 214 212 212 214 214 213 217 221 226 230 232 235 238 241 243 241 238 236 234 229 225 223 217 209 207 209 208 206 207 197 194
285 293 296 296 292 290 288 281 276 277 278 276 270 267 268 267 266 266 267 263 259 259 260 261 260 260 263 261 253 252 244 237 239 237 224 217 215 214 210 208 208 209 212 214 213 213 210 210 212 212 210 211 213 214 214 212 211 213 214 213 219 227 230 233 234 234 238 242 245 244 241 238 233 229 226 221 216 211 207 213 215 209 208 203 200
277 281 281 280 279 279 280 279 274 272 274 276 275 271 269 267 265 267 271 268 261 258 258 260 261 258 262 262 254 248 241 238 247 245 231 224 221 218 210 203 206 210 214 215 213 214 213 211 213 212 211 212 213 214 214 212 211 213 215 216 221 229 233 235 235 234 238 242 245 244 241 238 233 229 227 224 221 218 214 215 214 206 206 206 204
274 275 273 274 276 278 282 284 276 268 268 271 274 274 271 270 268 266 271 271 266 264 264 267 268 262 262 261 253 248 244 241 251 256 244 233 228 224 214 206 208 213 215 215 213 214 212 211 213 214 213 214 215 215 215 214 212 213 217 221 224 229 232 233 233 233 235 239 242 240 238 237 236 233 233 234 234 230 228 225 216 208 207 204 203
271 273 274 275 278 279 281 284 277 268 267 268 270 269 265 265 265 263 265 265 264 267 271 273 272 266 261 258 255 254 249 240 242 252 252 245 238 231 221 216 217 216 213 211 210 210 209 210 213 215 214 215 216 216 216 214 214 216 220 225 229 230 231 233 233 231 231 235 239 240 237 237 239 239 238 241 243 242 241 234 222 218 216 208 207
265 267 270 273 277 278 279 280 276 273 274 276 276 272 265 262 263 263 261 254 253 259 267 271 269 265 260 256 254 256 252 241 235 240 248 250 242 233 230 229 224 217 211 207 206 206 207 208 210 212 213 215 216 216 216 216 217 221 223 227 232 232 232 233 233 231 228 231 236 239 239 240 243 246 246 247 249 248 246 237 225 224 223 215 216
262 264 267 270 274 276 277 278 278 278 279 279 280 282 279 270 263 263 261 256 251 252 257 261 262 260 256 252 250 251 251 240 230 231 237 241 239 235 234 228 218 213 210 207 204 204 204 204 207 210 213 216 216 215 216 219 221 224 227 230 233 234 232 230 231 231 229 231 234 238 241 244 247 251 251 251 250 249 247 240 228 227 227 220 220
261 264 267 270 273 275 276 278 280 279 278 280 285 292 291 277 261 255 256 256 254 252 251 251 252 252 248 245 244 244 247 242 231 225 223 227 234 233 229 223 215 213 212 210 208 205 203 203 206 210 214 216 216 216 217 221 225 228 231 233 234 233 231 229 229 229 230 231 233 238 243 246 248 251 253 251 249 248 247 241 232 230 228 221 220
260 262 265 267 270 273 275 277 278 276 276 281 287 291 287 277 264 253 250 249 248 248 247 245 243 242 240 238 236 236 241 245 237 228 218 217 226 227 224 223 219 215 214 215 212 205 204 207 208 210 214 216 219 220 220 224 229 232 235 236 234 231 229 230 231 230 232 233 235 240 245 247 249 251 252 250 246 244 242 238 234 233 228 221 220
262 262 264 264 266 269 272 274 276 276 278 282 285 284 281 277 269 258 253 248 243 241 242 243 241 238 235 233 230 229 236 250 253 238 223 214 217 219 217 218 216 215 218 219 214 207 207 211 213 214 217 219 222 225 225 227 232 235 238 239 237 232 230 232 235 235 236 235 234 239 244 249 251 250 248 247 243 240 238 235 233 232 229 223 221
265 264 265 265 266 268 270 273 274 276 279 281 283 280 278 279 273 263 257 250 242 240 241 244 242 237 234 231 226 225 232 249 263 250 234 221 215 213 213 212 212 215 221 218 213 211 212 215 219 220 222 225 227 230 231 233 234 236 238 241 240 236 233 234 237 238 237 235 235 237 242 247 251 250 246 243 238 235 234 231 228 229 227 221 219
270 269 268 266 268 270 273 275 273 273 275 276 276 276 277 281 278 270 261 253 246 243 243 243 238 235 235 230 225 224 229 242 254 255 247 237 225 215 213 214 216 218 220 216 214 217 220 223 225 226 227 230 231 234 236 237 238 238 238 239 240 237 235 237 240 240 237 234 235 238 241 246 251 252 247 240 234 229 227 226 224 224 222 218 216
274 275 272 269 269 271 275 277 273 268 267 266 267 270 274 280 282 275 263 254 245 236 236 236 229 231 234 226 224 225 225 234 244 247 250 248 241 229 220 219 222 223 219 216 218 222 226 228 229 230 231 233 235 237 239 240 241 240 239 239 239 236 236 240 243 242 238 235 236 240 243 247 252 255 249 240 232 225 222 223 221 221 220 216 214
276 277 273 269 267 264 267 276 277 267 259 258 262 266 270 278 284 276 261 254 242 228 226 222 217 223 223 215 222 227 224 228 235 240 253 249 243 237 228 222 223 225 221 218 221 224 226 229 231 232 234 235 237 239 240 241 242 241 241 242 241 240 241 243 243 241 238 235 237 241 244 246 252 255 250 240 233 227 223 222 219 219 220 215 212
277 276 269 263 256 251 258 274 277 269 260 256 260 267 274 282 292 289 272 262 245 231 226 219 216 221 217 210 217 225 228 231 230 234 249 238 226 226 228 228 226 223 220 220 223 224 225 229 231 234 235 236 238 239 239 240 240 241 242 244 245 246 245 244 242 241 239 237 238 240 242 244 249 253 250 242 234 229 225 221 219 219 219 216 213
276 272 266 259 251 248 260 273 272 268 265 264 270 279 283 285 291 298 289 275 253 231 224 220 220 227 226 217 217 223 228 233 232 235 242 232 220 222 230 235 229 220 217 219 222 223 224 228 231 234 236 236 238 239 239 240 240 240 241 244 246 248 247 245 243 242 240 238 238 239 240 242 246 250 249 243 233 226 221 218 217 215 214 215 215
266 262 260 260 260 260 265 270 271 269 266 272 282 287 290 293 298 299 287 278 258 229 228 228 225 230 235 226 224 226 229 233 236 237 238 232 225 225 229 233 226 216 215 219 222 223 225 227 232 234 236 236 238 240 240 240 240 240 241 243 245 246 247 245 243 240 238 237 237 239 239 241 245 247 247 243 233 223 216 212 212 211 210 214 218
261 257 255 256 260 264 268 271 273 273 272 276 281 283 287 292 297 297 279 263 258 238 237 237 230 232 237 230 226 227 227 232 235 235 235 235 229 224 225 228 221 214 218 223 225 227 228 228 231 234 235 238 239 240 241 241 241 241 241 243 245 245 245 243 240 238 237 236 236 238 239 241 244 245 244 242 235 225 218 213 211 211 212 216 222
265 263 262 262 260 262 266 270 272 272 271 273 275 278 282 284 287 289 276 260 255 250 250 253 248 245 243 235 231 228 226 231 234 232 233 236 231 225 224 225 223 220 224 230 231 230 230 230 232 235 238 241 241 241 242 241 242 242 242 242 244 245 243 240 239 237 236 236 236 236 238 239 242 245 244 242 237 232 227 222 218 218 219 222 228
268 267 267 268 267 266 266 269 273 274 273 270 270 274 277 279 281 279 272 264 257 257 266 271 268 263 258 250 246 245 241 240 236 231 232 233 231 227 224 224 226 225 224 229 233 232 230 230 233 236 239 242 243 243 244 244 244 244 244 244 246 246 243 241 241 239 237 237 236 236 237 239 241 243 244 243 241 237 234 231 229 228 229 231 235
269 269 270 270 271 271 270 271 274 277 278 276 273 273 274 276 278 273 270 268 264 270 280 282 275 273 269 260 256 259 257 249 240 233 232 233 231 229 226 221 222 224 224 228 232 231 228 229 233 237 239 241 243 245 248 248 248 247 246 246 247 247 244 242 242 241 239 238 238 238 239 240 241 242 243 244 244 242 241 239 237 237 238 241 244
267 269 271 273 273 274 274 274 275 275 277 277 276 276 275 275 275 271 270 269 271 278 285 282 277 274 270 264 263 265 260 251 246 238 235 236 234 232 228 220 220 225 227 230 233 233 229 225 229 235 239 243 246 249 251 251 249 248 246 244 245 245 243 242 241 242 242 241 241 242 243 243 243 244 245 245 246 247 246 246 243 242 244 247 249
265 267 269 271 273 275 276 277 277 276 276 277 277 278 278 277 276 273 272 271 274 280 282 280 276 273 271 269 267 266 260 254 250 241 236 237 233 229 225 221 224 231 233 232 234 236 231 222 222 231 237 241 246 250 252 250 247 247 245 244 243 242 242 242 242 244 245 245 244 244 245 245 245 246 248 248 250 250 251 250 248 246 247 248 250
262 264 266 268 270 273 276 278 279 279 279 279 279 279 280 281 280 277 275 274 275 277 279 278 276 273 272 270 267 266 263 257 249 242 239 237 230 224 219 219 225 233 235 235 234 235 230 221 219 228 234 238 243 248 250 248 245 245 245 244 242 241 242 243 243 245 247 248 247 245 245 245 246 248 250 251 253 254 253 252 250 248 247 248 249
260 261 263 266 269 273 276 278 280 281 283 283 281 281 281 283 283 280 278 276 275 275 274 274 275 274 271 269 266 263 261 257 251 245 243 239 231 224 220 220 225 229 234 238 237 236 232 221 218 227 233 236 241 245 247 246 244 244 244 243 243 243 244 245 246 247 248 248 248 245 243 243 244 247 249 252 255 256 255 253 251 250 250 249 249
259 261 262 264 267 270 273 277 280 282 283 284 284 283 283 284 284 284 283 281 280 279 274 270 270 271 270 266 262 258 256 256 252 248 245 241 234 226 220 219 224 226 229 236 237 235 234 226 223 228 232 235 240 244 245 245 244 242 242 242 243 245 245 244 245 246 246 245 244 242 241 242 243 246 248 250 252 254 257 256 254 253 254 254 253
257 261 263 264 266 267 269 272 275 278 281 284 285 285 283 283 284 285 286 286 287 286 282 275 271 271 270 265 260 256 254 254 252 249 245 241 233 225 218 217 221 226 229 234 236 234 231 228 227 230 234 237 240 243 244 244 242 241 240 240 241 243 244 244 243 244 244 242 241 242 243 244 247 251 252 252 251 251 253 256 257 257 257 257 258
256 260 263 265 267 267 268 269 270 273 277 280 283 285 284 282 282 284 287 289 290 289 287 282 277 274 271 266 260 257 253 255 258 253 247 240 229 222 220 218 221 229 233 235 239 237 231 229 227 229 233 236 238 242 244 243 241 239 239 240 241 241 243 243 242 242 244 243 243 246 249 252 255 257 257 256 254 252 250 252 256 258 257 257 258
256 259 262 264 266 267 267 268 269 271 273 275 278 281 282 282 281 282 286 289 291 291 288 285 281 276 270 263 259 256 253 256 254 243 239 235 224 220 222 220 221 232 237 237 242 238 232 233 233 230 230 231 235 241 244 242 238 237 238 241 242 242 243 245 245 245 247 249 250 251 253 257 259 260 260 259 256 255 252 251 252 254 254 253 252
256 258 260 263 264 265 266 267 268 270 271 273 275 277 279 280 279 279 281 284 287 289 289 287 285 278 266 254 249 246 246 250 245 233 227 224 219 221 225 221 223 236 241 240 241 234 229 234 237 234 230 228 232 239 243 241 237 235 237 241 244 246 247 248 248 248 249 253 255 256 255 256 258 260 261 259 256 254 252 251 251 252 252 253 253
254 255 257 260 262 263 263 265 267 269 272 273 274 276 277 277 278 277 278 279 281 284 286 287 286 280 266 253 245 239 238 243 242 233 224 218 219 226 226 221 226 242 247 245 241 233 229 231 232 231 229 227 231 238 240 239 237 235 237 241 245 248 250 250 250 249 249 251 255 258 257 256 256 258 260 259 256 254 252 251 252 254 256 258 259
251 252 254 257 259 261 261 262 265 267 270 273 275 276 276 277 278 278 277 278 279 280 282 284 284 278 267 255 243 237 239 242 240 235 227 222 226 230 224 222 232 246 249 247 241 232 228 226 224 225 227 229 234 237 237 237 237 236 238 241 245 248 248 249 249 249 249 249 251 255 258 259 259 260 261 259 256 255 254 255 257 260 261 262 263
249 250 251 253 257 259 260 261 262 264 267 270 273 275 275 276 277 278 277 276 277 279 281 283 282 274 268 259 240 231 235 239 237 235 230 228 233 229 218 219 234 245 247 246 238 228 222 220 221 224 228 232 234 236 236 237 237 238 240 243 246 248 249 250 251 252 253 253 252 254 256 257 259 260 259 257 256 256 257 258 261 263 264 265 266
251 251 251 252 254 257 260 261 261 262 264 266 268 270 271 273 275 276 276 275 275 278 280 284 284 277 275 269 244 227 230 233 234 236 230 229 235 228 217 221 236 243 244 242 233 224 218 219 223 227 229 233 235 235 237 238 239 241 243 245 248 250 250 252 255 258 259 257 254 253 254 256 258 258 255 253 254 257 259 261 262 263 265 266 267
253 252 252 252 253 254 256 259 260 261 263 264 266 267 268 270 271 273 274 273 273 275 277 280 283 282 282 279 265 255 255 245 238 238 232 228 231 228 224 231 241 242 238 232 225 222 223 226 231 232 231 232 234 236 240 243 244 246 248 250 252 253 254 255 258 259 257 253 252 252 252 255 256 255 253 251 253 257 260 262 262 263 263 264 264
254 253 253 253 254 255 255 257 258 259 259 261 265 267 267 268 269 270 271 270 270 271 273 276 279 280 282 280 271 268 266 255 247 244 237 229 228 229 232 239 241 239 234 227 223 224 226 229 231 233 233 234 237 241 245 247 249 252 254 255 254 254 255 255 255 254 252 250 250 251 252 254 254 254 254 254 255 257 259 260 261 262 263 264 265
255 254 254 254 255 256 256 257 258 258 259 261 264 266 266 266 267 268 269 269 268 268 269 272 274 276 277 275 266 255 253 254 253 250 244 238 235 234 236 240 240 237 233 230 228 227 227 228 232 234 236 238 241 244 246 247 249 250 249 250 252 252 252 251 250 250 250 251 252 254 256 258 258 258 257 257 258 259 260 262 263 264 265 266 267
257 256 257 257 256 256 256 257 258 261 263 263 264 266 266 266 265 265 266 267 266 266 267 269 272 273 273 272 267 259 254 254 252 248 248 250 247 242 240 241 241 238 235 235 236 232 228 230 235 239 242 245 244 243 243 243 243 240 238 240 243 245 245 245 245 246 247 249 252 255 257 259 259 259 260 260 261 263 264 266 267 268 269 269 270
261 260 261 260 259 258 258 258 259 262 264 264 264 265 266 267 266 265 265 266 266 265 265 266 268 269 268 267 264 260 257 257 255 251 246 244 245 246 246 246 245 242 239 239 242 240 234 233 238 244 248 248 243 238 235 235 236 237 236 237 239 240 241 243 244 246 249 251 254 256 258 259 260 261 262 263 265 266 268 269 270 271 272 273 273
261 262 263 263 262 262 261 260 260 261 263 264 265 265 264 265 265 264 264 265 266 266 266 265 265 264 262 260 259 257 253 252 253 252 248 242 239 241 245 247 246 245 244 243 243 243 241 240 242 245 246 243 237 232 232 234 236 236 236 237 238 240 243 247 251 253 255 255 256 257 259 261 263 265 266 267 268 269 270 271 272 272 273 273 274
263 263 263 263 263 264 265 265 264 264 263 264 266 266 265 263 261 261 261 263 265 266 266 265 263 261 257 254 252 252 250 247 245 245 246 249 248 242 241 243 244 244 244 243 242 242 240 237 236 237 237 236 236 237 241 243 242 241 242 246 248 249 249 249 249 250 250 250 250 252 255 260 264 267 267 268 268 269 270 270 271 272 273 273 274
266 266 266 266 265 265 266 267 267 267 267 267 268 268 268 266 264 261 258 257 260 262 262 261 259 257 255 251 247 247 248 247 244 241 242 247 250 247 243 241 240 240 237 234 233 234 231 227 228 232 235 236 237 239 240 240 238 238 240 243 245 245 244 244 245 247 250 252 254 256 259 263 266 267 268 268 269 269 271 272 272 273 273 274 274
267 267 268 268 269 269 269 269 269 269 269 269 268 269 269 270 269 265 259 254 253 255 256 258 258 256 253 248 244 242 243 244 243 240 241 246 249 249 245 241 237 233 226 221 224 230 234 234 234 237 239 240 239 237 235 231 230 229 230 232 234 237 240 243 247 252 255 258 260 261 263 265 267 269 270 271 272 274 274 274 273 273 273 274 274
267 267 267 268 268 269 269 270 271 271 272 271 269 268 268 268 268 267 265 260 255 251 250 252 255 257 255 251 247 244 243 244 243 239 238 241 245 247 247 244 239 233 229 232 240 248 252 254 252 250 247 245 244 245 244 242 240 239 240 242 244 246 249 253 256 257 259 261 263 265 266 268 270 271 272 272 273 274 274 273 273 274 274 276 277
265 265 265 266 266 266 267 267 268 269 270 270 270 268 267 267 266 267 267 265 260 255 249 244 242 246 250 251 249 248 247 248 248 245 240 239 240 242 243 241 240 239 242 247 252 255 256 257 257 257 254 250 246 247 249 251 251 251 252 253 254 255 257 259 261 263 265 266 268 269 269 269 268 268 269 270 272 273 273 274 275 277 278 280 281
Height
5793 5793 5792 5793 5793 5794 5794 5794 5794 5794 5794 5793 5793 5793 5793 5793 5793 5793 5793 5792 5790 5789 5792 5793 5792 5793 5792 5792 5792 5791 5791 5791 5791 5791 5792 5794 5795 5797 5799 5801 5802 5803 5805 5806 5808 5809 5811 5812 5813 5813 5814 5814 5814 5815 5815 5814 5814 5814 5814 5815 5816 5817 5817 5817 5817 5818 5818 5819 5819 5819 5819 5819 5818 5818 5818 5817 5817 5816 5815 5814 5813 5813 5813 5813 5813
5791 5790 5790 5790 5791 5791 5792 5792 5792 5791 5791 5790 5790 5790 5790 5790 5791 5791 5790 5789 5786 5786 5788 5789 5789 5790 5790 5789 5788 5788 5788 5788 5788 5789 5790 5791 5793 5796 5798 5800 5801 5802 5803 5805 5806 5807 5809 5810 5811 5811 5812 5813 5813 5813 5813 5813 5812 5812 5812 5813 5814 5815 5816 5816 5816 5817 5817 5817 5818 5818 5818 5818 5818 5818 5818 5817 5816 5816 5815 5814 5814 5813 5813 5813 5813
5787 5788 5788 5788 5788 5788 5789 5789 5788 5788 5788 5787 5787 5788 5788 5788 5788 5788 5787 5786 5785 5784 5785 5786 5785 5786 5786 5786 5785 5785 5786 5786 5787 5787 5788 5789 5791 5794 5797 5799 5800 5801 5802 5803 5804 5805 5806 5807 5809 5809 5810 5811 5812 5811 5811 5811 5811 5811 5811 5811 5812 5814 5814 5814 5815 5815 5815 5816 5816 5817 5817 5817 5817 5817 5817 5817 5816 5816 5815 5814 5814 5813 5813 5813 5813
5784 5785 5786 5786 5786 5786 5785 5785 5785 5785 5785 5785 5785 5785 5785 5785 5785 5784 5784 5784 5783 5782 5783 5783 5782 5783 5783 5783 5782 5782 5783 5784 5785 5786 5787 5788 5790 5792 5795 5797 5798 5799 5800 5801 5802 5803 5804 5806 5807 5807 5808 5809 5809 5810 5810 5810 5810 5810 5810 5811 5811 5812 5812 5812 5813 5814 5814 5814 5815 5815 5816 5816 5816 5816 5816 5816 5815 5815 5814 5814 5814 5813 5813 5812 5813
5782 5783 5783 5783 5784 5784 5783 5783 5783 5782 5782 5782 5783 5783 5782 5782 5782 5781 5782 5782 5781 5780 5780 5780 5780 5781 5781 5781 5780 5780 5781 5781 5783 5785 5786 5787 5788 5790 5792 5794 5795 5797 5798 5799 5800 5802 5803 5804 5805 5806 5806 5807 5807 5808 5808 5809 5809 5809 5809 5810 5810 5811 5811 5811 5812 5812 5813 5813 5813 5814 5814 5814 5814 5815 5815 5814 5814 5814 5814 5813 5813 5813 5812 5812 5812
5779 5780 5781 5781 5781 5781 5780 5780 5781 5780 5780 5780 5781 5780 5779 5779 5779 5778 5779 5779 5779 5778 5778 5777 5778 5779 5779 5779 5779 5779 5779 5780 5781 5783 5784 5785 5786 5788 5790 5792 5793 5795 5796 5797 5799 5800 5801 5802 5803 5804 5805 5805 5805 5806 5807 5807 5808 5807 5808 5808 5809 5810 5810 5811 5811 5811 5811 5811 5812 5812 5812 5812 5813 5813 5813 5813 5813 5813 5813 5813 5813 5813 5813 5812 5812
5777 5778 5779 5779 5779 5778 5777 5777 5778 5778 5778 5778 5778 5777 5776 5776 5776 5776 5776 5777 5777 5776 5775 5775 5776 5777 5777 5777 5778 5778 5778 5779 5780 5781 5782 5784 5785 5786 5788 5790 5791 5792 5794 5795 5797 5798 5799 5800 5801 5802 5803 5803 5804 5804 5805 5806 5806 5806 5806 5807 5807 5808 5809 5809 5809 5810 5810 5810 5810 5810 5811 5811 5811 5811 5811 5811 5812 5812 5812 5812 5812 5812 5812 5812 5812
5775 5776 5776 5777 5776 5776 5775 5775 5775 5775 5775 5775 5775 5775 5774 5774 5774 5774 5775 5775 5774 5773 5772 5772 5774 5775 5775 5776 5776 5776 5777 5778 5779 5780 5781 5782 5783 5785 5786 5788 5789 5790 5792 5793 5795 5797 5798 5799 5800 5800 5801 5802 5802 5803 5803 5804 5804 5804 5805 5805 5806 5807 5807 5807 5807 5808 5808 5808 5808 5808 5809 5809 5809 5809 5810 5810 5810 5810 5810 5811 5811 5812 5812 5812 5811
5772 5773 5773 5773 5773 5773 5773 5773 5772 5772 5772 5773 5773 5773 5772 5772 5773 5773 5773 5774 5772 5770 5770 5771 5772 5774 5774 5775 5775 5774 5775 5776 5777 5778 5780 5781 5782 5783 5783 5785 5787 5788 5790 5791 5793 5794 5796 5797 5798 5799 5800 5801 5801 5801 5802 5802 5803 5803 5803 5804 5805 5805 5805 5805 5806 5806 5806 5806 5807 5807 5807 5808 5808 5808 5808 5809 5809 5809 5809 5809 5810 5811 5811 5811 5811
5769 5770 5770 5769 5770 5770 5771 5771 5770 5770 5769 5770 5771 5771 5771 5771 5771 5772 5772 5772 5771 5770 5770 5771 5772 5772 5772 5773 5774 5773 5773 5774 5775 5776 5778 5780 5781 5781 5781 5783 5784 5786 5788 5789 5791 5792 5793 5794 5796 5797 5799 5799 5800 5800 5800 5801 5801 5801 5802 5803 5803 5804 5804 5804 5804 5805 5804 5805 5805 5806 5806 5807 5807 5807 5808 5808 5808 5808 5807 5808 5808 5809 5810 5810 5809
5767 5767 5767 5767 5767 5768 5768 5768 5767 5766 5766 5766 5768 5768 5768 5768 5768 5769 5769 5769 5768 5768 5769 5770 5771 5771 5771 5772 5772 5772 5772 5772 5773 5774 5776 5778 5779 5779 5780 5781 5782 5783 5785 5787 5788 5789 5791 5792 5794 5795 5797 5797 5798 5798 5799 5800 5800 5800 5801 5801 5802 5802 5802 5802 5803 5803 5803 5803 5803 5804 5805 5805 5806 5806 5807 5807 5807 5807 5807 5807 5807 5808 5808 5809 5808
5765 5765 5765 5765 5764 5764 5765 5764 5763 5763 5763 5764 5765 5765 5765 5765 5765 5766 5766 5766 5765 5765 5766 5767 5768 5769 5770 5771 5771 5771 5770 5770 5771 5771 5773 5775 5777 5777 5778 5779 5780 5781 5782 5784 5786 5787 5789 5790 5792 5793 5794 5795 5796 5796 5797 5798 5798 5798 5799 5800 5800 5800 5801 5801 5801 5802 5802 5802 5802 5803 5803 5804 5804 5805 5805 5806 5806 5806 5805 5806 5806 5806 5807 5807 5807
5762 5762 5762 5762 5761 5761 5762 5761 5760 5760 5760 5760 5762 5763 5763 5763 5763 5763 5763 5763 5762 5762 5762 5764 5764 5765 5767 5768 5769 5770 5770 5769 5769 5769 5770 5772 5774 5775 5776 5777 5778 5779 5780 5782 5784 5785 5786 5787 5788 5790 5791 5792 5793 5794 5795 5796 5796 5797 5797 5797 5798 5798 5799 5799 5799 5800 5800 5800 5801 5801 5802 5802 5803 5803 5803 5804 5804 5804 5804 5804 5804 5805 5805 5806 5806
5759 5760 5760 5759 5759 5759 5759 5758 5757 5757 5756 5755 5758 5760 5760 5759 5758 5758 5759 5759 5759 5759 5759 5760 5760 5760 5762 5765 5767 5770 5770 5768 5767 5767 5768 5769 5771 5773 5774 5775 5776 5777 5778 5780 5781 5782 5783 5784 5786 5787 5788 5789 5790 5791 5792 5793 5794 5794 5795 5795 5796 5797 5797 5797 5797 5798 5798 5799 5799 5800 5800 5801 5801 5801 5801 5801 5802 5802 5802 5803 5803 5803 5804 5805 5805
5757 5758 5757 5757 5756 5756 5756 5756 5755 5755 5754 5754 5755 5757 5756 5754 5754 5754 5753 5753 5754 5754 5755 5756 5756 5756 5758 5761 5764 5767 5767 5765 5765 5765 5766 5767 5768 5770 5772 5773 5774 5775 5776 5777 5779 5780 5781 5782 5783 5785 5785 5786 5787 5789 5790 5791 5791 5792 5792 5793 5794 5795 5795 5795 5795 5796 5797 5797 5798 5798 5798 5799 5799 5799 5799 5799 5800 5800 5800 5801 5801 5801 5802 5803 5804
5755 5755 5754 5754 5754 5753 5752 5752 5751 5751 5751 5751 5752 5753 5752 5751 5751 5751 5748 5748 5748 5748 5751 5753 5753 5753 5755 5757 5760 5763 5764 5763 5763 5763 5764 5764 5765 5767 5769 5770 5772 5773 5774 5776 5777 5778 5779 5780 5782 5783 5783 5784 5785 5786 5787 5788 5789 5790 5790 5791 5792 5792 5793 5793 5793 5794 5795 5795 5796 5796 5796 5797 5797 5798 5798 5797 5797 5798 5798 5799 5799 5800 5801 5802 5802
5752 5752 5751 5751 5750 5750 5749 5749 5748 5747 5747 5747 5748 5749 5749 5749 5748 5747 5746 5746 5746 5746 5749 5751 5753 5753 5753 5754 5756 5759 5760 5760 5761 5761 5762 5763 5763 5764 5766 5768 5770 5771 5772 5774 5775 5776 5777 5779 5780 5781 5781 5782 5783 5784 5785 5786 5787 5788 5788 5789 5789 5790 5790 5791 5791 5792 5793 5793 5793 5794 5794 5795 5795 5796 5796 5796 5795 5796 5796 5797 5798 5798 5799 5800 5800
5748 5748 5748 5747 5747 5746 5746 5745 5745 5744 5744 5744 5745 5745 5746 5746 5745 5743 5742 5743 5745 5746 5748 5749 5753 5754 5754 5753 5754 5756 5758 5759 5759 5760 5761 5762 5761 5762 5763 5765 5767 5769 5770 5771 5773 5774 5775 5776 5777 5778 5779 5780 5781 5781 5782 5783 5784 5785 5786 5786 5786 5787 5788 5788 5789 5790 5791 5791 5791 5791 5792 5793 5793 5794 5794 5794 5794 5794 5795 5795 5796 5796 5797 5798 5798
5745 5745 5745 5744 5743 5743 5743 5742 5741 5741 5740 5741 5741 5742 5743 5743 5742 5741 5739 5739 5741 5743 5744 5747 5751 5752 5752 5753 5753 5754 5756 5757 5757 5758 5760 5760 5760 5759 5760 5762 5763 5765 5766 5768 5770 5771 5772 5773 5774 5775 5776 5777 5778 5779 5780 5780 5781 5782 5783 5784 5784 5784 5785 5786 5787 5788 5789 5789 5789 5789 5790 5791 5791 5792 5792 5793 5792 5792 5793 5793 5794 5795 5795 5796 5796
5741 5742 5741 5741 5741 5741 5741 5740 5738 5738 5738 5738 5738 5739 5741 5741 5740 5739 5738 5737 5738 5739 5742 5745 5746 5747 5747 5749 5750 5752 5753 5754 5755 5756 5757 5757 5756 5756 5756 5758 5759 5761 5763 5764 5766 5767 5768 5769 5770 5772 5773 5775 5775 5776 5777 5778 5778 5779 5780 5780 5781 5782 5783 5784 5785 5785 5786 5787 5787 5787 5788 5789 5789 5789 5790 5791 5791 5791 5791 5792 5792 5793 5793 5794 5794
5737 5738 5738 5738 5738 5739 5739 5738 5738 5737 5737 5737 5737 5737 5738 5739 5739 5739 5737 5736 5736 5738 5741 5742 5742 5743 5744 5745 5747 5749 5751 5752 5753 5754 5754 5753 5753 5753 5754 5754 5756 5757 5759 5761 5763 5764 5765 5766 5767 5769 5770 5772 5772 5773 5774 5775 5775 5776 5777 5777 5778 5779 5781 5782 5783 5783 5784 5784 5784 5785 5786 5787 5788 5788 5788 5788 5789 5789 5789 5790 5791 5791 5792 5792 5793
5735 5735 5735 5735 5736 5736 5737 5737 5737 5737 5736 5736 5736 5736 5737 5737 5738 5738 5737 5736 5736 5737 5739 5739 5741 5743 5743 5743 5745 5747 5749 5750 5751 5751 5750 5752 5753 5752 5752 5753 5753 5754 5756 5758 5759 5761 5762 5764 5765 5766 5768 5769 5770 5771 5771 5772 5772 5773 5774 5775 5775 5777 5778 5779 5780 5781 5782 5782 5782 5783 5784 5785 5786 5786 5786 5786 5787 5787 5787 5788 5789 5790 5791 5791 5791
5733 5734 5734 5734 5734 5734 5735 5735 5735 5735 5735 5735 5735 5735 5735 5736 5737 5737 5737 5736 5735 5736 5737 5738 5741 5742 5742 5742 5743 5745 5747 5749 5749 5748 5748 5750 5751 5750 5751 5751 5751 5752 5754 5755 5757 5758 5759 5761 5763 5764 5765 5767 5767 5768 5768 5769 5769 5770 5771 5772 5773 5774 5775 5777 5778 5779 5779 5779 5780 5781 5782 5783 5784 5784 5784 5785 5785 5785 5786 5787 5788 5789 5790 5790 5789
5732 5732 5733 5733 5733 5733 5733 5733 5733 5734 5734 5734 5734 5734 5734 5734 5735 5736 5737 5736 5734 5734 5734 5736 5738 5740 5740 5740 5741 5743 5744 5745 5745 5745 5746 5748 5748 5748 5749 5749 5749 5750 5752 5753 5754 5756 5757 5759 5761 5762 5763 5764 5764 5765 5765 5766 5766 5767 5769 5770 5770 5771 5773 5774 5775 5776 5776 5777 5778 5779 5779 5780 5781 5782 5783 5783 5783 5783 5784 5785 5786 5787 5788 5788 5788
5730 5730 5731 5731 5732 5732 5731 5731 5731 5732 5733 5733 5732 5732 5733 5733 5733 5734 5734 5735 5734 5732 5733 5735 5737 5738 5738 5739 5739 5740 5741 5741 5741 5742 5743 5745 5746 5747 5747 5747 5746 5747 5749 5750 5751 5753 5754 5756 5758 5759 5760 5761 5762 5762 5762 5763 5764 5765 5766 5766 5767 5768 5770 5771 5772 5772 5773 5774 5775 5776 5777 5778 5779 5780 5780 5780 5780 5781 5782 5783 5784 5785 5786 5786 5786
5728 5729 5729 5729 5729 5730 5730 5729 5728 5729 5730 5730 5730 5730 5730 5731 5731 5731 5731 5732 5732 5731 5732 5734 5736 5736 5736 5736 5737 5737 5738 5739 5738 5739 5740 5741 5743 5744 5744 5744 5743 5744 5746 5746 5747 5749 5750 5753 5755 5756 5757 5758 5759 5759 5759 5760 5761 5762 5763 5764 5764 5766 5767 5768 5769 5770 5770 5771 5772 5773 5774 5775 5777 5778 5778 5778 5778 5779 5779 5780 5782 5782 5783 5784 5783
5727 5727 5727 5727 5727 5727 5727 5727 5726 5726 5726 5727 5727 5728 5728 5728 5728 5728 5728 5728 5728 5728 5730 5733 5734 5734 5733 5732 5733 5734 5735 5736 5736 5737 5737 5737 5739 5740 5740 5740 5740 5741 5743 5743 5744 5745 5747 5750 5752 5754 5755 5755 5756 5756 5757 5758 5759 5760 5761 5762 5762 5764 5765 5766 5766 5767 5768 5769 5770 5771 5772 5773 5774 5775 5775 5776 5776 5776 5777 5777 5778 5779 5780 5780 5780
5725 5725 5725 5725 5724 5724 5724 5724 5724 5724 5723 5724 5724 5725 5725 5725 5726 5726 5725 5725 5724 5725 5727 5729 5730 5730 5729 5728 5729 5730 5731 5732 5732 5733 5734 5734 5735 5736 5737 5737 5737 5737 5740 5742 5742 5742 5744 5747 5749 5750 5751 5752 5753 5754 5755 5755 5756 5757 5758 5759 5760 5761 5762 5763 5764 5764 5765 5767 5768 5769 5770 5771 5772 5772 5772 5773 5773 5774 5774 5774 5775 5776 5776 5777 5777
5723 5723 5723 5723 5722 5722 5722 5722 5722 5721 5721 5722 5722 5722 5722 5723 5723 5723 5723 5723 5722 5722 5723 5725 5726 5727 5726 5726 5726 5727 5727 5728 5728 5730 5731 5732 5732 5733 5734 5734 5734 5735 5738 5739 5740 5740 5742 5743 5745 5747 5748 5748 5750 5751 5752 5752 5753 5754 5755 5756 5758 5759 5760 5761 5762 5762 5762 5764 5766 5767 5767 5768 5769 5769 5770 5770 5770 5771 5771 5771 5772 5772 5773 5773 5773
5720 5721 5721 5721 5720 5720 5719 5719 5719 5719 5719 5719 5719 5719 5719 5720 5720 5720 5720 5720 5720 5720 5720 5720 5721 5722 5723 5723 5723 5724 5725 5725 5725 5726 5727 5728 5729 5730 5731 5732 5732 5734 5735 5737 5738 5738 5739 5740 5742 5743 5744 5745 5747 5748 5749 5749 5750 5751 5752 5754 5755 5756 5757 5758 5759 5759 5760 5761 5763 5764 5765 5765 5766 5766 5767 5767 5768 5768 5768 5768 5768 5768 5769 5769 5769
5717 5718 5718 5718 5718 5718 5717 5717 5717 5717 5717 5717 5716 5716 5716 5717 5717 5717 5716 5716 5717 5717 5717 5717 5716 5717 5718 5719 5719 5720 5721 5721 5721 5722 5723 5724 5725 5727 5728 5729 5730 5731 5733 5735 5736 5735 5736 5737 5739 5739 5740 5741 5743 5745 5746 5746 5747 5748 5749 5750 5752 5753 5754 5755 5755 5756 5757 5758 5759 5761 5762 5763 5763 5764 5764 5764 5764 5764 5764 5764 5764 5764 5764 5765 5765
5714 5714 5715 5715 5716 5716 5715 5715 5715 5715 5715 5714 5714 5714 5714 5714 5713 5713 5713 5713 5713 5714 5714 5714 5713 5713 5713 5714 5715 5716 5716 5717 5717 5717 5718 5720 5721 5723 5725 5726 5727 5728 5730 5732 5732 5733 5733 5735 5735 5735 5736 5738 5740 5741 5742 5743 5744 5745 5746 5747 5748 5749 5751 5752 5752 5753 5754 5755 5756 5757 5758 5759 5760 5760 5761 5761 5760 5759 5759 5759 5759 5760 5760 5760 5760
5710 5710 5711 5712 5712 5713 5713 5713 5713 5712 5712 5712 5712 5711 5711 5711 5711 5711 5710 5710 5710 5710 5710 5711 5710 5709 5709 5709 5710 5711 5712 5712 5713 5713 5715 5716 5717 5719 5721 5722 5723 5725 5726 5727 5728 5729 5730 5732 5732 5732 5734 5735 5737 5737 5739 5740 5740 5741 5743 5744 5745 5747 5748 5749 5750 5750 5751 5752 5753 5754 5755 5756 5757 5757 5757 5757 5757 5756 5756 5755 5755 5756 5756 5756 5756
5707 5707 5707 5708 5708 5709 5709 5710 5710 5710 5710 5710 5710 5709 5709 5708 5708 5708 5707 5707 5708 5708 5707 5707 5707 5706 5705 5705 5705 5707 5708 5709 5709 5709 5711 5712 5713 5715 5717 5719 5719 5721 5723 5723 5724 5726 5727 5728 5729 5730 5731 5732 5733 5734 5735 5736 5737 5738 5739 5741 5742 5744 5745 5746 5747 5748 5748 5749 5750 5751 5752 5752 5753 5753 5753 5753 5753 5753 5753 5752 5752 5752 5752 5753 5753
5704 5703 5704 5704 5704 5705 5705 5706 5707 5707 5707 5707 5707 5707 5706 5706 5705 5705 5705 5705 5704 5704 5704 5704 5703 5703 5702 5702 5702 5703 5704 5706 5706 5706 5707 5708 5710 5712 5714 5715 5716 5718 5719 5720 5721 5722 5723 5724 5726 5727 5728 5729 5730 5731 5732 5733 5734 5735 5736 5737 5739 5741 5742 5743 5744 5745 5745 5745 5746 5747 5748 5748 5749 5749 5749 5749 5749 5749 5749 5749 5749 5748 5748 5749 5750
5700 5700 5700 5701 5701 5701 5702 5702 5703 5703 5703 5704 5704 5704 5703 5703 5703 5702 5702 5702 5701 5701 5701 5700 5700 5699 5699 5699 5699 5700 5701 5703 5704 5704 5704 5705 5707 5709 5710 5711 5713 5714 5715 5716 5717 5718 5720 5721 5722 5724 5725 5725 5726 5727 5728 5729 5730 5732 5733 5734 5735 5737 5739 5739 5741 5742 5742 5742 5742 5743 5744 5745 5745 5745 5745 5745 5745 5745 5745 5744 5744 5744 5745 5745 5745
5697 5697 5697 5697 5697 5697 5698 5698 5699 5699 5699 5700 5700 5701 5700 5700 5700 5700 5699 5699 5699 5698 5698 5698 5697 5697 5696 5696 5697 5697 5698 5699 5700 5701 5702 5703 5705 5706 5707 5708 5710 5710 5711 5712 5713 5715 5716 5717 5718 5719 5721 5722 5723 5724 5725 5726 5727 5729 5731 5731 5732 5733 5735 5735 5737 5738 5739 5739 5738 5738 5739 5740 5740 5740 5740 5740 5740 5740 5740 5740 5740 5741 5741 5741 5741
5693 5693 5694 5694 5694 5694 5695 5695 5696 5696 5696 5696 5697 5697 5698 5697 5697 5697 5697 5696 5696 5695 5695 5695 5695 5694 5693 5693 5694 5695 5695 5696 5698 5699 5700 5701 5702 5703 5704 5706 5707 5707 5708 5708 5710 5711 5712 5713 5714 5716 5717 5718 5719 5721 5722 5723 5724 5726 5727 5728 5729 5730 5730 5731 5732 5733 5735 5736 5736 5735 5735 5735 5735 5736 5736 5736 5736 5736 5736 5736 5737 5737 5738 5738 5737
5690 5690 5690 5691 5690 5690 5691 5692 5692 5693 5693 5693 5693 5694 5694 5694 5694 5694 5694 5693 5693 5692 5692 5693 5693 5692 5691 5691 5691 5692 5693 5694 5695 5696 5697 5699 5699 5700 5701 5703 5703 5704 5705 5706 5706 5707 5708 5709 5710 5712 5713 5715 5716 5717 5719 5720 5721 5722 5723 5724 5725 5726 5726 5727 5728 5729 5730 5731 5731 5731 5731 5731 5731 5731 5732 5732 5732 5733 5733 5733 5734 5734 5734 5733 5733
5686 5686 5687 5687 5687 5687 5687 5688 5688 5689 5689 5689 5690 5690 5691 5691 5691 5691 5691 5690 5690 5689 5689 5690 5690 5690 5689 5688 5688 5688 5690 5691 5692 5693 5695 5696 5697 5697 5698 5699 5700 5701 5702 5702 5702 5703 5704 5705 5707 5708 5709 5711 5712 5713 5715 5716 5717 5718 5719 5720 5721 5722 5722 5723 5723 5724 5724 5725 5726 5726 5726 5727 5727 5727 5728 5729 5729 5730 5730 5730 5730 5729 5729 5729 5728
5681 5682 5682 5682 5682 5683 5683 5683 5684 5685 5686 5685 5686 5686 5687 5687 5687 5687 5688 5687 5687 5686 5686 5687 5687 5687 5687 5686 5686 5686 5687 5688 5689 5691 5692 5693 5694 5694 5694 5695 5696 5698 5698 5699 5699 5701 5702 5703 5703 5704 5705 5707 5708 5709 5711 5712 5714 5715 5715 5716 5717 5717 5717 5718 5719 5719 5719 5719 5720 5720 5721 5722 5723 5723 5724 5725 5725 5726 5726 5725 5725 5725 5725 5724 5724
5677 5677 5677 5677 5678 5678 5679 5679 5680 5681 5681 5681 5682 5682 5683 5684 5684 5684 5684 5684 5684 5683 5683 5684 5684 5684 5684 5685 5685 5686 5687 5687 5688 5688 5689 5689 5690 5690 5691 5692 5693 5694 5695 5696 5697 5697 5698 5699 5700 5701 5702 5703 5704 5705 5707 5708 5709 5710 5711 5712 5713 5713 5713 5714 5714 5714 5714 5714 5715 5715 5716 5717 5718 5719 5720 5720 5721 5721 5721 5720 5720 5720 5719 5719 5719
5672 5673 5673 5673 5674 5674 5674 5675 5675 5675 5677 5678 5678 5678 5679 5680 5680 5680 5681 5681 5681 5680 5680 5681 5681 5681 5681 5682 5683 5684 5685 5685 5685 5685 5686 5686 5686 5686 5687 5688 5689 5690 5691 5692 5693 5694 5694 5695 5696 5697 5698 5699 5700 5702 5703 5704 5705 5706 5706 5707 5708 5708 5709 5709 5710 5710 5710 5710 5711 5711 5712 5713 5714 5714 5715 5715 5716 5716 5715 5715 5715 5715 5714 5714 5714
5668 5668 5669 5669 5669 5669 5669 5670 5670 5671 5672 5674 5674 5674 5674 5675 5676 5676 5676 5677 5677 5677 5677 5677 5678 5678 5678 5679 5680 5681 5681 5681 5681 5681 5682 5682 5683 5683 5683 5684 5685 5686 5687 5688 5689 5690 5690 5691 5692 5693 5694 5695 5696 5697 5698 5699 5700 5700 5701 5702 5703 5704 5704 5705 5706 5706 5706 5706 5707 5708 5708 5709 5709 5710 5710 5710 5710 5710 5710 5710 5709 5709 5709 5708 5708
5664 5665 5665 5665 5665 5665 5665 5665 5666 5667 5668 5668 5669 5669 5670 5670 5671 5672 5672 5672 5673 5674 5674 5674 5674 5675 5675 5675 5676 5677 5677 5677 5678 5677 5677 5678 5678 5679 5680 5681 5682 5682 5683 5685 5686 5686 5687 5688 5689 5690 5691 5692 5692 5693 5693 5694 5695 5695 5696 5697 5698 5699 5700 5701 5701 5702 5702 5703 5703 5704 5704 5705 5705 5705 5705 5705 5705 5705 5704 5704 5704 5703 5703 5702 5702
5661 5661 5661 5660 5660 5660 5660 5660 5661 5662 5663 5663 5663 5664 5665 5665 5666 5667 5667 5668 5668 5669 5670 5670 5671 5671 5672 5672 5672 5672 5673 5674 5674 5674 5674 5674 5675 5676 5676 5677 5678 5678 5679 5681 5682 5682 5682 5684 5685 5686 5687 5687 5688 5688 5689 5689 5690 5690 5691 5693 5694 5695 5696 5697 5697 5698 5698 5699 5699 5699 5700 5700 5700 5700 5700 5700 5700 5700 5699 5699 5698 5698 5697 5696 5696
5657 5657 5656 5656 5656 5656 5656 5656 5656 5657 5657 5658 5658 5658 5659 5660 5661 5661 5662 5663 5663 5664 5665 5666 5666 5666 5667 5668 5668 5669 5669 5670 5670 5671 5671 5672 5672 5673 5674 5674 5675 5675 5676 5677 5678 5678 5678 5680 5681 5682 5683 5684 5684 5685 5685 5686 5686 5687 5688 5689 5690 5691 5692 5693 5693 5693 5694 5694 5695 5695 5695 5694 5694 5694 5695 5695 5694 5694 5694 5693 5693 5692 5691 5691 5690
5653 5653 5652 5652 5652 5651 5651 5651 5652 5652 5652 5653 5653 5653 5654 5654 5655 5656 5657 5658 5658 5659 5659 5660 5661 5662 5662 5663 5664 5665 5665 5666 5666 5667 5668 5668 5669 5670 5670 5671 5672 5672 5673 5673 5673 5674 5675 5676 5677 5679 5680 5681 5682 5682 5682 5683 5683 5684 5685 5686 5686 5687 5688 5689 5689 5689 5689 5690 5690 5689 5689 5688 5688 5688 5688 5688 5688 5688 5688 5687 5687 5686 5685 5684 5683
5649 5649 5648 5647 5647 5647 5647 5647 5647 5647 5647 5648 5648 5648 5648 5649 5650 5651 5652 5653 5653 5654 5654 5655 5656 5657 5657 5658 5659 5660 5661 5662 5662 5663 5664 5665 5666 5666 5667 5668 5668 5669 5669 5669 5670 5670 5671 5673 5674 5676 5677 5678 5678 5679 5679 5680 5680 5680 5681 5682 5682 5683 5683 5684 5684 5684 5684 5684 5684 5684 5683 5682 5682 5682 5682 5682 5682 5682 5681 5681 5680 5679 5678 5677 5677
5644 5644 5643 5643 5642 5642 5642 5642 5642 5642 5642 5642 5643 5643 5643 5644 5644 5645 5647 5648 5649 5649 5650 5650 5651 5652 5652 5653 5654 5655 5656 5658 5659 5659 5660 5661 5662 5663 5664 5664 5665 5665 5666 5666 5666 5666 5667 5668 5670 5672 5673 5674 5674 5675 5675 5675 5676 5676 5677 5677 5677 5678 5678 5678 5679 5679 5679 5679 5678 5678 5678 5677 5677 5676 5676 5676 5675 5675 5675 5674 5673 5672 5672 5671 5670
5639 5638 5638 5637 5637 5637 5637 5637 5637 5637 5637 5637 5638 5638 5638 5639 5639 5640 5641 5642 5644 5645 5645 5646 5647 5647 5648 5648 5649 5650 5651 5653 5654 5655 5656 5657 5658 5658 5659 5660 5661 5661 5661 5662 5662 5662 5662 5663 5665 5666 5668 5669 5670 5670 5670 5670 5670 5671 5672 5672 5672 5672 5672 5672 5673 5673 5673 5673 5672 5672 5672 5671 5671 5671 5670 5670 5669 5669 5668 5668 5667 5666 5665 5664 5663